Weather History for Auburn, AL

Change the Weather History Date:

Friday, January 31, 2014

  Actual Average Record
Temperature  
Mean Temperature 39 °F -  
Max Temperature 57 °F - 75 °F (1969)
Min Temperature 21 °F - 12 °F (1966)
Degree Days  
Heating Degree Days 26    
Month to date heating degree days 856  
Since 1 July heating degree days 1759  
Moisture  
Dew Point 19 °F    
Average Humidity 49    
Maximum Humidity 80    
Minimum Humidity 18    
Precipitation  
Precipitation 0.00 in - 1.26 in (1999)
Month to date precipitation 1.60  
Year to date precipitation 1.60  
Sea Level Pressure  
Sea Level Pressure 30.17 in    
Wind  
Wind Speed 4 mph (ESE)    
Max Wind Speed 7 mph    
Max Gust Speed -    
Visibility 10 miles    
Events      
T = Trace of Precipitation, MM = Missing Value Source: NWS Daily Summary

Daily Weather History Graph

Daily Weather History Graph

Search for Another Location

Airport:

Trip Planner

Search our weather history database for the weather conditions in past years. The results will help you decide how hot, cold, wet, or windy it might be!

Date:

Astronomy

Jan. 31, 2014 Rise Set
Actual Time 6:36 AM CST 5:13 PM CST
Civil Twilight 6:11 AM CST 5:39 PM CST
Nautical Twilight 5:41 AM CST 6:09 PM CST
Astronomical Twilight 5:12 AM CST 6:38 PM CST
Moon 6:51 AM CST (1/31) 6:29 PM CST (1/31)
Length of Visible Light 11h 28m
Length of Day
10h 36m
New Moon, 1% of the Moon is Illuminated
Jan 31
New Moon
Feb 6
First Quarter
Feb 14
Full
Feb 22
Last Quarter
Mar 1
New

Hourly Weather History & Observations

Time (CST) Temp. Windchill Dew Point Humidity Pressure Visibility Wind Dir Wind Speed Gust Speed Precip Events Conditions
12:15 AM 26.6 °F 21.2 °F 19.4 °F 74% 30.19 in 10.0 mi ESE 4.6 mph - N/A   Clear
12:35 AM 28.4 °F 22.2 °F 19.4 °F 69% 30.18 in 10.0 mi East 5.8 mph - N/A   Clear
12:55 AM 28.4 °F 22.2 °F 19.4 °F 69% 30.17 in 10.0 mi East 5.8 mph - N/A   Clear
1:15 AM 26.6 °F 19.1 °F 19.4 °F 74% 30.17 in 10.0 mi East 6.9 mph - N/A   Clear
1:35 AM 26.6 °F 21.2 °F 19.4 °F 74% 30.18 in 10.0 mi East 4.6 mph - N/A   Clear
1:55 AM 24.8 °F 20.5 °F 17.6 °F 74% 30.19 in 10.0 mi East 3.5 mph - N/A   Clear
2:15 AM 24.8 °F 16.9 °F 19.4 °F 80% 30.18 in 10.0 mi East 6.9 mph - N/A   Clear
2:35 AM 26.6 °F 20.0 °F 17.6 °F 69% 30.18 in 10.0 mi East 5.8 mph - N/A   Clear
2:55 AM 26.6 °F 19.1 °F 19.4 °F 74% 30.17 in 10.0 mi East 6.9 mph - N/A   Clear
3:15 AM 26.6 °F 19.1 °F 17.6 °F 69% 30.17 in 10.0 mi East 6.9 mph - N/A   Clear
3:35 AM 24.8 °F 16.9 °F 17.6 °F 74% 30.16 in 10.0 mi East 6.9 mph - N/A   Clear
3:55 AM 24.8 °F 19.1 °F 17.6 °F 74% 30.16 in 10.0 mi East 4.6 mph - N/A   Clear
4:15 AM 24.8 °F 19.1 °F 17.6 °F 74% 30.15 in 10.0 mi ENE 4.6 mph - N/A   Clear
4:35 AM 23.0 °F 17.0 °F 17.6 °F 80% 30.15 in 10.0 mi ENE 4.6 mph - N/A   Clear
4:55 AM 23.0 °F 15.8 °F 17.6 °F 80% 30.15 in 10.0 mi NE 5.8 mph - N/A   Clear
5:15 AM 23.0 °F 14.7 °F 15.8 °F 74% 30.17 in 10.0 mi NNE 6.9 mph - N/A   Clear
5:35 AM 21.2 °F 13.6 °F 15.8 °F 80% 30.17 in 10.0 mi ENE 5.8 mph - N/A   Clear
5:55 AM 24.8 °F 17.9 °F 17.6 °F 74% 30.18 in 10.0 mi ENE 5.8 mph - N/A   Clear
6:15 AM 24.8 °F 16.9 °F 17.6 °F 74% 30.21 in 10.0 mi East 6.9 mph - N/A   Clear
6:35 AM 24.8 °F 17.9 °F 17.6 °F 74% 30.21 in 10.0 mi East 5.8 mph - N/A   Clear
6:55 AM 24.8 °F 16.9 °F 15.8 °F 69% 30.22 in 10.0 mi NE 6.9 mph - N/A   Clear
7:15 AM 24.8 °F 16.9 °F 17.6 °F 74% 30.21 in 10.0 mi East 6.9 mph - N/A   Clear
7:35 AM 28.4 °F 21.2 °F 17.6 °F 64% 30.22 in 10.0 mi East 6.9 mph - N/A   Clear
7:55 AM 28.4 °F 22.2 °F 17.6 °F 64% 30.21 in 10.0 mi East 5.8 mph - N/A   Clear
8:15 AM 30.2 °F 21.9 °F 17.6 °F 60% 30.21 in 10.0 mi ESE 9.2 mph - N/A   Clear
8:35 AM 32.0 °F 24.8 °F 17.6 °F 55% 30.21 in 10.0 mi SE 8.1 mph - N/A   Clear
8:55 AM 33.8 °F 30.8 °F 19.4 °F 56% 30.23 in 10.0 mi ESE 3.5 mph - N/A   Clear
9:15 AM 35.6 °F 31.7 °F 19.4 °F 52% 30.24 in 10.0 mi SSE 4.6 mph - N/A   Clear
9:35 AM 37.4 °F - 19.4 °F 48% 30.24 in 10.0 mi Calm Calm - N/A   Clear
9:55 AM 39.2 °F - 21.2 °F 49% 30.23 in 10.0 mi Calm Calm - N/A   Clear
10:15 AM 41.0 °F 39.0 °F 21.2 °F 45% 30.23 in 10.0 mi ENE 3.5 mph - N/A   Clear
10:35 AM 42.8 °F 41.1 °F 21.2 °F 42% 30.22 in 10.0 mi NE 3.5 mph - N/A   Clear
10:55 AM 42.8 °F - 21.2 °F 42% 30.21 in 10.0 mi Calm Calm - N/A   Clear
11:15 AM 44.6 °F - 21.2 °F 39% 30.21 in 10.0 mi Calm Calm - N/A   Clear
11:35 AM 46.4 °F - 19.4 °F 34% 30.19 in 10.0 mi Calm Calm - N/A   Clear
11:55 AM 48.2 °F - 19.4 °F 32% 30.19 in 10.0 mi Calm Calm - N/A   Clear
12:15 PM 51.8 °F - 19.4 °F 28% 30.18 in 10.0 mi WNW 6.9 mph - N/A   Clear
12:35 PM 51.8 °F - 19.4 °F 28% 30.17 in 10.0 mi NW 4.6 mph - N/A   Clear
12:55 PM 53.6 °F - 14.0 °F 21% 30.16 in 10.0 mi West 3.5 mph - N/A   Clear
1:15 PM 53.6 °F - 14.0 °F 21% 30.16 in 10.0 mi SW 4.6 mph - N/A   Clear
1:35 PM 53.6 °F - 14.0 °F 21% 30.15 in 10.0 mi Calm Calm - N/A   Clear
1:55 PM 55.4 °F - 14.0 °F 20% 30.14 in 10.0 mi Calm Calm - N/A   Clear
2:15 PM 57.2 °F - 14.0 °F 18% 30.13 in 10.0 mi Calm Calm - N/A   Clear
2:35 PM 55.4 °F - 14.0 °F 20% 30.13 in 10.0 mi SSE 5.8 mph - N/A   Clear
2:55 PM 57.2 °F - 15.8 °F 20% 30.13 in 10.0 mi East 3.5 mph - N/A   Clear
3:15 PM 57.2 °F - 15.8 °F 20% 30.12 in 10.0 mi South 4.6 mph - N/A   Clear
3:35 PM 57.2 °F - 15.8 °F 20% 30.12 in 10.0 mi SE 4.6 mph - N/A   Clear
3:55 PM 57.2 °F - 17.6 °F 21% 30.12 in 10.0 mi SE 4.6 mph - N/A   Clear
4:15 PM 57.2 °F - 15.8 °F 20% 30.13 in 10.0 mi ESE 4.6 mph - N/A   Clear
4:35 PM 55.4 °F - 17.6 °F 23% 30.13 in 10.0 mi SE 4.6 mph - N/A   Clear
4:55 PM 55.4 °F - 17.6 °F 23% 30.12 in 10.0 mi ESE 6.9 mph - N/A   Clear
5:15 PM 53.6 °F - 17.6 °F 24% 30.12 in 10.0 mi Calm Calm - N/A   Clear
5:35 PM 51.8 °F - 17.6 °F 26% 30.12 in 10.0 mi SE 4.6 mph - N/A   Clear
5:55 PM 50.0 °F - 17.6 °F 28% 30.13 in 10.0 mi SE 3.5 mph - N/A   Clear
6:15 PM 48.2 °F - 17.6 °F 30% 30.13 in 10.0 mi Calm Calm - N/A   Clear
6:35 PM 46.4 °F 45.2 °F 17.6 °F 32% 30.14 in 10.0 mi ESE 3.5 mph - N/A   Clear
6:55 PM 44.6 °F 43.1 °F 19.4 °F 37% 30.14 in 10.0 mi East 3.5 mph - N/A   Clear
7:15 PM 42.8 °F 41.1 °F 19.4 °F 39% 30.14 in 10.0 mi ESE 3.5 mph - N/A   Clear
7:35 PM 42.8 °F 41.1 °F 19.4 °F 39% 30.14 in 10.0 mi ESE 3.5 mph - N/A   Clear
7:55 PM 39.2 °F 37.0 °F 21.2 °F 49% 30.14 in 10.0 mi East 3.5 mph - N/A   Clear
8:15 PM 41.0 °F 39.0 °F 19.4 °F 42% 30.15 in 10.0 mi ESE 3.5 mph - N/A   Clear
8:35 PM 39.2 °F - 17.6 °F 42% 30.16 in 10.0 mi Calm Calm - N/A   Clear
8:55 PM 35.6 °F 31.7 °F 19.4 °F 52% 30.16 in 10.0 mi ESE 4.6 mph - N/A   Clear
9:15 PM 39.2 °F 35.0 °F 19.4 °F 45% 30.16 in 10.0 mi SE 5.8 mph - N/A   Clear
9:35 PM 44.6 °F 41.4 °F 19.4 °F 37% 30.15 in 10.0 mi ESE 5.8 mph - N/A   Clear
9:55 PM 44.6 °F 40.7 °F 17.6 °F 34% 30.15 in 10.0 mi SE 6.9 mph - N/A   Clear
10:15 PM 42.8 °F 39.3 °F 21.2 °F 42% 30.15 in 10.0 mi SE 5.8 mph - N/A   Clear
10:35 PM 42.8 °F 40.1 °F 23.0 °F 46% 30.15 in 10.0 mi SE 4.6 mph - N/A   Clear
10:55 PM 41.0 °F 38.0 °F 24.8 °F 53% 30.14 in 10.0 mi SE 4.6 mph - N/A   Clear
11:15 PM 39.2 °F 37.0 °F 24.8 °F 56% 30.14 in 10.0 mi SE 3.5 mph - N/A   Clear
11:35 PM 39.2 °F - 26.6 °F 61% 30.13 in 10.0 mi Calm Calm - N/A   Clear
11:55 PM 39.2 °F 37.0 °F 26.6 °F 61% 30.13 in 10.0 mi ESE 3.5 mph - N/A   Clear